Wind_Speed
42 41 42 42 40 41 40 40 40 40 41 42 42 44 46 48 49 51 52 54 55 56 58 60 61 62 63 64 65 65 65 65 65 64 65 65 65 65 64 64 63 62 62
41 41 41 40 40 41 41 41 41 42 43 43 46 48 49 51 52 54 55 57 59 60 62 63 63 64 64 64 65 64 64 63 63 62 62 62 62 62 61 60 59 58 57
40 40 40 40 41 42 42 41 42 43 45 47 49 51 52 54 55 56 58 59 61 62 63 63 63 64 64 64 64 63 62 62 61 60 59 59 58 58 55 53 53 52 51
39 39 38 39 41 41 42 42 43 45 47 49 51 53 53 55 56 58 58 59 60 61 62 62 61 61 61 61 60 59 58 58 56 55 54 53 52 50 48 46 45 45 45
37 37 38 39 40 41 42 43 45 46 49 51 52 53 53 54 56 57 59 59 60 60 60 60 60 60 59 58 56 55 54 52 51 49 48 47 45 43 42 40 39 38 38
33 35 36 38 39 40 42 44 45 47 49 50 51 52 52 54 55 56 57 58 58 58 58 57 56 55 54 52 50 48 47 45 43 42 40 38 37 36 35 34 33 31 30
32 34 35 37 39 41 42 43 44 45 47 48 49 51 52 53 54 54 55 55 54 53 52 50 49 47 45 43 42 40 38 37 35 32 31 31 30 30 28 28 27 27 26
32 33 35 36 37 38 39 41 42 44 45 46 48 49 50 51 51 52 51 50 49 47 45 43 41 39 36 34 32 31 29 27 25 24 24 24 23 22 22 22 22 23 24
30 32 33 34 35 36 37 38 39 41 42 44 45 46 47 47 48 47 46 44 42 40 37 34 31 29 26 24 23 21 20 19 18 18 18 17 17 17 18 19 20 20 21
29 30 31 32 33 33 35 36 37 39 40 41 42 43 43 42 41 40 38 36 33 30 27 24 22 20 18 17 16 15 15 15 15 15 14 14 15 16 17 18 19 20 20
27 27 28 29 30 30 32 33 34 35 36 37 38 37 37 36 34 32 29 27 24 21 19 17 15 14 13 12 12 11 12 13 13 13 14 15 16 17 18 19 19 20 20
24 25 26 27 27 28 29 31 32 32 33 33 33 33 32 30 28 25 23 20 18 16 14 13 11 11 10 10 10 10 11 12 12 13 14 16 17 17 18 18 19 20 20
23 23 24 25 26 26 28 29 29 29 30 30 29 28 26 25 23 21 18 16 14 13 11 10 9 9 10 10 10 11 11 12 13 14 15 16 16 17 18 18 19 19 20
22 22 23 23 23 25 26 26 26 26 26 25 24 22 21 20 18 16 14 12 11 10 10 10 10 11 11 11 12 12 12 13 14 15 16 16 16 17 18 18 18 19 19
21 21 21 21 22 23 23 22 22 22 22 21 19 18 17 15 14 12 11 11 10 10 11 11 12 12 12 13 13 13 13 14 15 16 16 16 17 17 18 18 17 18 18
19 19 20 20 20 20 20 19 19 19 18 18 17 16 14 12 11 10 10 10 10 11 11 12 12 13 13 13 14 14 15 15 16 16 17 18 18 18 18 17 17 17 18
18 18 18 17 17 17 17 17 17 16 15 15 14 13 12 11 10 10 10 10 10 11 11 12 12 13 14 14 14 15 16 17 17 18 18 19 18 18 18 18 18 17 18
16 16 15 15 15 14 14 14 14 14 13 12 11 11 10 10 9 10 10 10 11 11 12 12 13 13 14 14 15 15 16 18 18 19 19 19 18 18 17 18 18 17 18
14 14 13 13 13 12 12 12 12 11 10 10 9 9 9 9 10 10 10 10 11 12 12 13 13 14 15 15 16 16 17 18 19 19 19 19 18 18 17 17 17 18 18
12 11 11 11 11 10 9 9 9 9 8 8 8 8 8 9 9 10 10 11 11 12 12 13 14 14 15 16 17 17 18 18 18 19 19 19 18 18 17 17 17 17 18
11 10 10 10 9 8 7 7 7 7 7 7 7 8 8 9 9 10 10 11 12 12 13 13 14 15 16 17 18 18 18 18 18 19 19 19 19 18 17 17 17 17 18
10 10 9 8 7 6 5 5 6 6 6 6 6 7 8 9 9 10 10 11 12 12 13 14 15 15 16 17 18 18 19 19 19 19 19 19 19 18 18 18 18 18 18
9 9 8 7 6 5 4 4 5 5 5 5 6 7 7 8 9 10 10 11 12 12 13 14 15 16 16 17 17 18 19 19 19 19 19 19 18 18 18 18 18 18 18
8 8 7 6 5 5 4 4 4 5 5 6 6 7 7 8 9 9 10 11 12 12 13 14 15 15 16 17 17 18 19 19 19 19 19 19 18 18 18 18 18 18 18
9 8 8 7 6 5 5 5 5 5 6 6 6 7 7 8 9 9 10 11 12 12 13 14 15 15 16 17 17 18 18 18 19 19 19 19 19 19 18 18 18 18 18
12 10 9 8 7 6 6 6 6 6 7 7 7 8 8 8 9 10 10 11 12 12 13 14 15 15 16 17 17 17 18 18 18 19 19 19 19 19 19 19 19 19 19
Wind_Direction
274 276 279 282 284 287 289 290 289 290 290 289 290 290 291 291 291 291 291 290 290 290 290 291 291 291 290 289 289 289 289 289 288 288 288 288 289 289 290 290 290 290 290
276 279 280 281 284 286 287 289 289 290 290 289 290 291 291 291 291 291 291 290 290 291 292 292 291 290 290 290 290 289 289 289 289 289 289 290 290 291 292 292 291 292 292
278 279 279 280 282 285 287 288 288 289 290 290 291 291 291 291 291 291 291 291 291 291 291 291 290 290 289 289 289 289 289 289 290 290 290 291 291 293 293 293 294 294 294
278 278 278 280 281 282 283 285 287 289 290 290 290 290 291 291 290 291 291 291 291 292 292 291 291 291 290 290 290 290 290 291 291 292 292 293 293 294 295 295 296 297 298
275 276 279 280 282 283 285 287 288 289 290 290 291 291 291 291 292 293 293 293 293 293 292 292 292 291 291 291 290 290 291 292 293 293 294 295 295 296 297 298 298 299 301
276 278 280 281 283 285 286 288 289 290 291 292 293 293 293 294 295 295 295 295 295 294 294 294 294 293 292 292 292 291 291 292 293 295 295 296 297 298 299 301 302 303 304
279 280 281 282 283 285 287 289 291 292 293 293 294 295 295 296 296 296 297 296 296 296 296 296 296 295 295 294 294 294 294 295 295 295 297 298 300 301 303 305 307 308 309
281 282 283 285 287 289 291 292 293 294 296 296 297 298 299 298 298 298 298 298 299 299 299 299 298 298 298 297 297 297 298 298 298 300 302 304 305 308 311 312 313 315 316
283 285 287 288 290 292 293 296 298 300 301 301 302 302 302 302 302 302 302 302 302 302 302 302 302 302 301 301 302 303 305 306 308 311 313 315 317 320 322 323 323 324 324
286 288 290 292 294 296 298 300 302 303 304 306 307 307 306 307 307 308 308 309 310 310 311 310 310 309 309 311 312 313 314 318 323 326 329 332 333 333 332 332 331 330 330
289 292 294 296 298 300 302 304 306 307 308 310 311 312 313 314 315 316 317 317 318 319 320 320 320 321 322 324 324 327 331 335 338 340 341 342 342 340 339 338 337 336 336
292 294 297 299 301 304 306 308 310 312 313 313 314 316 318 321 322 323 325 327 328 329 330 331 333 337 341 343 345 347 349 349 349 350 349 348 347 345 343 341 341 341 341
294 297 299 302 305 307 309 312 314 315 317 318 319 320 322 325 328 330 333 335 338 341 346 351 358 3 5 6 5 4 4 2 359 357 354 352 350 349 347 345 346 347 348
298 300 301 304 307 310 313 315 317 320 323 325 326 327 329 332 336 341 346 352 359 7 15 20 21 22 22 21 19 17 14 10 6 2 359 356 354 352 351 351 352 353 355
301 302 304 306 310 314 317 319 323 327 329 331 333 336 339 343 346 352 360 9 20 29 31 32 32 31 28 26 23 20 16 12 8 4 1 360 358 356 355 355 357 359 1
303 304 306 308 312 316 319 324 328 331 334 336 339 343 349 355 3 10 19 27 32 35 37 37 34 31 29 27 24 21 16 13 10 8 5 3 2 2 2 2 2 4 6
306 307 308 310 313 316 321 326 330 334 337 341 346 352 360 8 18 27 34 37 39 40 39 37 35 33 31 28 25 21 18 15 12 9 7 6 5 7 8 9 10 12 13
310 310 310 311 313 317 323 329 334 339 344 349 356 4 11 20 31 39 44 46 46 44 40 37 35 32 29 25 22 20 18 15 12 11 10 10 12 13 14 15 17 18 19
315 315 315 316 318 321 326 334 342 347 352 1 10 18 26 34 41 45 48 48 46 42 39 37 34 30 26 23 21 18 15 14 13 14 15 16 17 18 19 20 21 23 25
321 323 323 324 325 328 334 342 349 355 2 12 22 31 38 43 47 49 49 46 42 39 36 34 31 28 26 22 19 16 15 16 17 18 19 21 22 22 24 25 26 28 30
328 328 329 329 333 338 342 351 359 7 16 25 33 39 44 48 49 48 45 42 39 37 36 33 31 28 24 21 21 20 20 22 22 23 24 25 26 26 28 30 32 34 36
333 334 335 337 340 343 350 0 8 16 26 33 39 45 48 47 45 41 39 38 37 37 35 31 28 26 25 24 24 24 25 26 26 26 26 27 28 30 32 34 36 38 40
341 344 346 349 354 360 8 14 19 25 32 39 45 48 46 44 41 39 38 38 36 34 31 29 28 27 26 26 27 27 27 27 27 27 27 28 30 32 34 35 37 40 42
0 4 7 12 18 26 33 35 36 38 44 48 49 46 43 42 41 42 42 41 38 34 32 30 28 28 28 29 29 28 28 29 29 29 29 30 32 34 36 38 40 42 44
24 24 25 29 35 41 47 50 50 51 52 52 50 47 45 45 46 47 45 40 36 34 32 31 31 31 31 31 30 29 30 30 31 31 32 33 35 37 39 41 43 45 47
38 37 38 42 47 51 54 55 56 57 56 55 53 52 50 50 50 47 42 38 37 36 35 34 34 33 33 31 31 32 32 32 33 34 34 36 37 39 42 44 46 47 49
Height
5787 5785 5784 5784 5784 5782 5781 5779 5778 5776 5775 5773 5770 5768 5765 5762 5759 5756 5752 5748 5744 5740 5736 5731 5727 5722 5717 5713 5708 5703 5699 5695 5691 5686 5680 5675 5669 5664 5660 5654 5649 5644 5639
5778 5777 5776 5775 5774 5772 5771 5770 5768 5766 5764 5762 5759 5757 5753 5750 5746 5742 5738 5734 5729 5724 5719 5714 5709 5704 5699 5694 5690 5685 5681 5677 5673 5669 5663 5658 5652 5648 5643 5638 5632 5626 5622
5769 5768 5768 5766 5764 5763 5761 5759 5757 5755 5753 5750 5747 5744 5740 5736 5732 5727 5723 5718 5713 5708 5702 5697 5692 5687 5682 5677 5672 5668 5664 5660 5656 5653 5647 5642 5637 5632 5628 5623 5617 5612 5607
5761 5760 5759 5757 5756 5754 5751 5749 5747 5744 5741 5738 5735 5731 5726 5722 5717 5713 5707 5702 5697 5691 5686 5680 5675 5670 5665 5660 5656 5652 5648 5644 5640 5636 5632 5627 5622 5617 5614 5610 5605 5599 5594
5752 5751 5750 5748 5746 5744 5741 5738 5735 5732 5729 5726 5722 5717 5713 5708 5703 5698 5693 5687 5681 5675 5669 5663 5658 5653 5648 5644 5640 5637 5633 5630 5626 5622 5618 5614 5610 5606 5602 5598 5594 5589 5583
5743 5741 5740 5738 5736 5734 5731 5728 5725 5721 5718 5714 5709 5705 5700 5695 5689 5683 5677 5671 5665 5659 5653 5647 5641 5637 5632 5628 5625 5622 5620 5617 5614 5610 5607 5603 5600 5596 5592 5588 5584 5580 5576
5733 5732 5731 5729 5726 5724 5721 5718 5714 5711 5707 5702 5697 5692 5687 5681 5675 5669 5662 5656 5650 5644 5638 5632 5627 5623 5619 5616 5613 5611 5609 5606 5604 5601 5598 5595 5591 5588 5584 5580 5576 5572 5569
5725 5723 5721 5719 5717 5714 5711 5708 5704 5700 5696 5691 5686 5680 5674 5668 5662 5655 5649 5643 5637 5631 5626 5620 5616 5612 5609 5606 5604 5602 5600 5598 5596 5594 5591 5588 5585 5581 5578 5575 5571 5567 5563
5717 5715 5713 5711 5708 5705 5702 5698 5694 5690 5685 5680 5674 5668 5662 5656 5650 5643 5637 5631 5625 5620 5615 5611 5607 5604 5602 5599 5598 5596 5594 5593 5591 5588 5586 5583 5580 5577 5573 5570 5567 5563 5558
5709 5707 5705 5703 5700 5697 5693 5689 5685 5681 5676 5670 5664 5658 5652 5646 5639 5633 5627 5621 5616 5612 5608 5604 5601 5599 5597 5595 5594 5592 5591 5589 5587 5585 5582 5580 5577 5574 5570 5567 5563 5559 5555
5702 5700 5698 5695 5692 5689 5685 5682 5677 5673 5668 5662 5656 5650 5644 5637 5631 5625 5620 5615 5610 5606 5603 5600 5598 5596 5594 5593 5592 5590 5589 5587 5585 5582 5580 5577 5574 5571 5567 5564 5560 5556 5551
5695 5693 5691 5688 5685 5682 5679 5675 5670 5665 5660 5655 5649 5643 5637 5631 5626 5620 5615 5611 5607 5604 5601 5599 5597 5595 5593 5592 5591 5589 5587 5586 5583 5581 5578 5575 5572 5569 5565 5561 5557 5553 5549
5689 5687 5684 5682 5679 5676 5672 5668 5663 5659 5654 5648 5643 5638 5633 5627 5622 5618 5613 5609 5606 5603 5601 5599 5597 5595 5593 5592 5590 5589 5587 5585 5583 5580 5577 5574 5571 5567 5564 5560 5556 5551 5547
5683 5681 5678 5676 5673 5670 5666 5662 5658 5653 5649 5644 5639 5634 5629 5625 5620 5616 5613 5609 5607 5604 5602 5600 5598 5596 5594 5593 5591 5589 5587 5585 5583 5580 5577 5573 5570 5566 5562 5558 5554 5550 5545
5677 5675 5672 5670 5667 5664 5661 5657 5653 5649 5645 5641 5636 5632 5628 5623 5620 5616 5613 5610 5608 5605 5603 5601 5600 5598 5596 5594 5592 5590 5588 5586 5583 5580 5576 5573 5569 5565 5561 5557 5553 5549 5545
5672 5670 5667 5665 5662 5659 5656 5653 5650 5646 5642 5638 5634 5630 5626 5623 5619 5617 5614 5612 5610 5608 5606 5604 5602 5600 5598 5596 5594 5592 5589 5586 5583 5580 5576 5572 5568 5564 5560 5556 5553 5549 5545
5667 5665 5662 5660 5658 5656 5653 5650 5647 5644 5640 5637 5633 5629 5626 5623 5620 5618 5616 5614 5612 5610 5609 5607 5605 5603 5601 5598 5596 5593 5590 5587 5584 5580 5576 5572 5568 5564 5560 5556 5552 5549 5545
5662 5660 5658 5656 5654 5652 5650 5647 5645 5642 5639 5636 5633 5630 5627 5624 5622 5620 5618 5616 5615 5613 5611 5609 5607 5605 5603 5600 5597 5594 5591 5588 5584 5580 5576 5572 5568 5564 5561 5557 5553 5550 5546
5659 5657 5655 5653 5651 5649 5648 5645 5643 5641 5638 5636 5633 5631 5628 5626 5624 5622 5620 5619 5617 5615 5613 5611 5609 5607 5605 5602 5599 5596 5592 5589 5585 5581 5577 5573 5569 5566 5562 5558 5555 5551 5548
5657 5655 5653 5651 5649 5647 5646 5644 5642 5640 5638 5636 5634 5632 5630 5628 5626 5625 5623 5621 5620 5618 5616 5614 5612 5609 5607 5604 5600 5597 5594 5590 5586 5583 5579 5575 5571 5567 5564 5560 5557 5553 5550
5655 5653 5651 5649 5647 5646 5645 5643 5642 5640 5638 5637 5635 5633 5632 5630 5629 5627 5626 5624 5622 5620 5618 5616 5614 5611 5609 5605 5602 5599 5595 5592 5588 5584 5580 5577 5573 5570 5566 5563 5559 5556 5553
5653 5651 5649 5647 5646 5645 5644 5643 5642 5641 5639 5638 5637 5635 5634 5632 5631 5629 5628 5626 5624 5622 5620 5618 5616 5613 5610 5607 5604 5601 5597 5594 5590 5586 5583 5579 5576 5572 5569 5565 5562 5559 5556
5652 5650 5648 5646 5645 5644 5644 5643 5642 5641 5640 5639 5638 5637 5636 5634 5633 5631 5630 5628 5626 5624 5622 5620 5618 5615 5612 5609 5606 5603 5600 5596 5593 5589 5585 5582 5578 5575 5572 5568 5565 5562 5559
5651 5649 5648 5646 5645 5645 5644 5644 5643 5642 5641 5640 5639 5638 5637 5636 5635 5633 5632 5630 5628 5627 5625 5623 5620 5618 5615 5612 5609 5606 5602 5599 5595 5592 5589 5585 5582 5578 5575 5572 5569 5566 5563
5651 5650 5648 5647 5646 5645 5645 5645 5644 5643 5643 5642 5641 5640 5639 5638 5636 5635 5634 5632 5631 5629 5627 5625 5622 5620 5617 5614 5611 5608 5605 5602 5599 5595 5592 5589 5585 5582 5579 5576 5573 5570 5567
5653 5652 5650 5649 5648 5647 5646 5646 5645 5645 5644 5643 5642 5641 5640 5639 5638 5637 5636 5635 5633 5631 5629 5627 5625 5622 5620 5617 5614 5611 5608 5605 5602 5599 5595 5592 5589 5586 5582 5580 5577 5574 5571